COSMOS 2485 [GLONASS-M] 
1 39155U 13019A   19262.15137236  .00000023  00000-0  00000+0 0  9999
2 39155  64.6743 156.5813 0019455 234.7240  59.6166  2.13102041 49796
FREGAT R/B              
1 39156U 13019B   19261.88547166  .00000024  00000-0  00000+0 0  9997
2 39156  64.6033 160.3412 0058384 111.0247 249.6717  2.08293661 48666